^^
Station Historical Data
Daily Summary for September 15, 2018 Units:  English    Metric   Both
« Previous Day
Next Day »
Daily Weekly Monthly Yearly Custom
  High: Low: Average:
Temperature: TemperatureF °F 47.3 °F 64.6 °F
Dew Point: DewpointF °F 24.4 °F 30.9 °F
Humidity: Humidity % 15 % 30 %
Wind Speed: WindSpeedMPH mph 0 mph 7.5 mph
Wind Gust: WindSpeedGustMPH mph - -
Wind:- - SE
Pressure: PressureIn in 29.82 in -
Precipitation: 0 in    
Historical Graphs
 
 
Tabular Data for September 15, 2018
Time Temperature Dew Point Pressure Wind Wind Speed Wind Gust Humidity Rainfall Rate (Hourly)
TemperatureF °F DewpointF °F PressureIn in Calm     Humidity % HourlyPrecipIn in
00:04 54.3 °F 26.6 °F 29.95 in SSW 6.9 mph 11 mph 34 % 0 in
00:09 54.9 °F 27 °F 29.96 in ESE 2.9 mph 8 mph 34 % 0 in
00:14 54 °F 27 °F 29.96 in SSW 6.9 mph 7 mph 35 % 0 in
00:19 53.2 °F 27 °F 29.95 in SW 6 mph 8 mph 36 % 0 in
00:24 52.7 °F 27.1 °F 29.95 in South 6.9 mph 10 mph 37 % 0 in
00:29 52.9 °F 26.6 °F 29.96 in SSW 6.9 mph 9 mph 36 % 0 in
00:34 52.5 °F 27 °F 29.96 in South 8.9 mph 9 mph 37 % 0 in
00:39 52.3 °F 26.8 °F 29.95 in SSW 2.9 mph 10 mph 37 % 0 in
00:44 52.2 °F 26.6 °F 29.95 in SE 4.9 mph 10 mph 37 % 0 in
00:49 51.6 °F 26.8 °F 29.96 in SW 8.1 mph 10 mph 38 % 0 in
00:54 51.1 °F 27 °F 29.96 in South 6.9 mph 12 mph 39 % 0 in
00:59 50.7 °F 26.6 °F 29.95 in West 6 mph 9 mph 39 % 0 in
01:04 50.7 °F 26.6 °F 29.95 in SW 6.9 mph 12 mph 39 % 0 in
01:09 50.5 °F 26.4 °F 29.95 in SSW 6.9 mph 11 mph 39 % 0 in
01:14 51.1 °F 26.4 °F 29.95 in SSE 6 mph 10 mph 38 % 0 in
01:19 51.6 °F 26.2 °F 29.95 in South 11 mph 13 mph 37 % 0 in
01:24 51.6 °F 26.2 °F 29.95 in South 4.9 mph 11 mph 37 % 0 in
01:29 51.8 °F 26.4 °F 29.95 in South 4 mph 10 mph 37 % 0 in
01:34 51.8 °F 26.4 °F 29.95 in SE 4.9 mph 10 mph 37 % 0 in
01:39 51.4 °F 26.1 °F 29.95 in SSW 8.1 mph 12 mph 37 % 0 in
01:44 51.1 °F 26.4 °F 29.95 in SW 6.9 mph 10 mph 38 % 0 in
01:49 51.1 °F 25.7 °F 29.94 in SSW 12.1 mph 12 mph 37 % 0 in
01:54 50.4 °F 26.4 °F 29.94 in South 11 mph 16 mph 39 % 0 in
01:59 50.5 °F 25.9 °F 29.95 in South 6 mph 15 mph 38 % 0 in
02:04 51.4 °F 25.3 °F 29.96 in SSW 6.9 mph 12 mph 36 % 0 in
02:09 51.4 °F 25.3 °F 29.95 in SSE 8.9 mph 12 mph 36 % 0 in
02:14 52 °F 25.2 °F 29.95 in South 6 mph 11 mph 35 % 0 in
02:19 52.5 °F 25 °F 29.95 in South 4.9 mph 9 mph 34 % 0 in
02:24 52.5 °F 25 °F 29.95 in SSW 4.9 mph 11 mph 34 % 0 in
02:29 52 °F 25.2 °F 29.96 in SSE 6.9 mph 11 mph 35 % 0 in
02:34 51.3 °F 25.2 °F 29.96 in SE 4.9 mph 10 mph 36 % 0 in
02:39 50.7 °F 25.3 °F 29.95 in South 2.9 mph 11 mph 37 % 0 in
02:44 49.8 °F 25.2 °F 29.96 in SW 8.1 mph 11 mph 38 % 0 in
02:49 49.5 °F 25.5 °F 29.96 in SSW 4 mph 8 mph 39 % 0 in
02:54 49.3 °F 25.3 °F 29.96 in SE 6.9 mph 10 mph 39 % 0 in
02:59 49.1 °F 25.2 °F 29.96 in SSE 2.9 mph 8 mph 39 % 0 in
03:04 49.6 °F 24.4 °F 29.96 in South 10.1 mph 11 mph 37 % 0 in
03:09 50.2 °F 25 °F 29.96 in WSW 6.9 mph 11 mph 37 % 0 in
03:14 49.8 °F 24.6 °F 29.96 in SW 4.9 mph 8 mph 37 % 0 in
03:19 49.3 °F 24.8 °F 29.96 in ESE 6 mph 11 mph 38 % 0 in
03:24 49.6 °F 25 °F 29.96 in SSW 8.9 mph 9 mph 38 % 0 in
03:29 50.2 °F 25 °F 29.96 in SSW 8.1 mph 9 mph 37 % 0 in
03:34 49.3 °F 24.8 °F 29.96 in SE 6.9 mph 12 mph 38 % 0 in
03:39 48.7 °F 24.8 °F 29.96 in SSW 10.1 mph 11 mph 39 % 0 in
03:44 48.4 °F 25.2 °F 29.96 in South 8.9 mph 14 mph 40 % 0 in
03:49 48.9 °F 25 °F 29.96 in SSW 10.1 mph 12 mph 39 % 0 in
03:54 48.6 °F 24.8 °F 29.96 in SW 8.9 mph 13 mph 39 % 0 in
03:59 48.6 °F 24.8 °F 29.96 in WNW 4.9 mph 10 mph 39 % 0 in
04:04 47.8 °F 24.6 °F 29.96 in South 6.9 mph 12 mph 40 % 0 in
04:09 48.7 °F 24.8 °F 29.96 in SSW 6 mph 10 mph 39 % 0 in
04:14 48.9 °F 25 °F 29.96 in SSE 8.9 mph 14 mph 39 % 0 in
04:19 48.9 °F 25 °F 29.96 in SSW 8.1 mph 12 mph 39 % 0 in
04:24 48.4 °F 25.2 °F 29.96 in SW 8.1 mph 13 mph 40 % 0 in
04:29 48.6 °F 25.3 °F 29.97 in SW 6.9 mph 8 mph 40 % 0 in
04:34 48.6 °F 24.8 °F 29.97 in SSW 4.9 mph 8 mph 39 % 0 in
04:39 48.6 °F 24.8 °F 29.97 in SSE 6 mph 11 mph 39 % 0 in
04:44 49.1 °F 24.6 °F 29.97 in SSW 6.9 mph 11 mph 38 % 0 in
04:49 48.7 °F 24.8 °F 29.97 in SSW 6.9 mph 10 mph 39 % 0 in
04:54 48.9 °F 25 °F 29.97 in SW 6 mph 9 mph 39 % 0 in
04:59 49.6 °F 25 °F 29.97 in South 8.1 mph 10 mph 38 % 0 in
05:04 49.1 °F 25.2 °F 29.97 in SSW 6.9 mph 10 mph 39 % 0 in
05:09 48.6 °F 25.3 °F 29.97 in SSW 8.1 mph 12 mph 40 % 0 in
05:14 49.1 °F 25.2 °F 29.97 in SW 10.1 mph 11 mph 39 % 0 in
05:19 48.9 °F 25.7 °F 29.97 in West 12.1 mph 14 mph 40 % 0 in
05:24 48.9 °F 25.7 °F 29.97 in SSE 8.9 mph 11 mph 40 % 0 in
05:29 48.9 °F 25.7 °F 29.97 in South 8.9 mph 11 mph 40 % 0 in
05:34 48 °F 25.5 °F 29.97 in South 6 mph 11 mph 41 % 0 in
05:39 47.8 °F 25.3 °F 29.97 in SSW 8.1 mph 11 mph 41 % 0 in
05:44 48 °F 25.5 °F 29.97 in WSW 6.9 mph 11 mph 41 % 0 in
05:49 48 °F 25.5 °F 29.98 in SSW 8.9 mph 11 mph 41 % 0 in
05:54 47.7 °F 25.7 °F 29.97 in SW 11 mph 13 mph 42 % 0 in
05:59 47.3 °F 25.9 °F 29.98 in South 8.9 mph 11 mph 43 % 0 in
06:04 47.7 °F 26.2 °F 29.98 in West 6.9 mph 10 mph 43 % 0 in
06:09 47.8 °F 26.4 °F 29.98 in SW 8.1 mph 9 mph 43 % 0 in
06:14 48.4 °F 26.4 °F 29.98 in SW 10.1 mph 11 mph 42 % 0 in
06:19 48.6 °F 26.4 °F 29.98 in SW 8.9 mph 10 mph 42 % 0 in
06:24 48.4 °F 26.4 °F 29.98 in SW 10.1 mph 12 mph 42 % 0 in
06:29 48.6 °F 26.4 °F 29.98 in SW 10.1 mph 11 mph 42 % 0 in
06:34 48.4 °F 26.4 °F 29.98 in SW 8.1 mph 12 mph 42 % 0 in
06:39 48.4 °F 27 °F 29.99 in WSW 8.1 mph 11 mph 43 % 0 in
06:44 48.7 °F 26.6 °F 29.99 in SW 8.1 mph 11 mph 42 % 0 in
06:49 48.4 °F 27 °F 29.99 in SSE 6 mph 13 mph 43 % 0 in
06:54 48.6 °F 27.1 °F 29.99 in NW 6 mph 11 mph 43 % 0 in
06:59 48.9 °F 26.8 °F 30.00 in South 6 mph 11 mph 42 % 0 in
07:04 49.5 °F 27.3 °F 29.99 in WSW 8.9 mph 10 mph 42 % 0 in
07:09 49.5 °F 27.3 °F 30.00 in South 6.9 mph 12 mph 42 % 0 in
07:14 49.5 °F 27.3 °F 30.00 in WSW 8.1 mph 10 mph 42 % 0 in
07:19 50.2 °F 27.3 °F 30.00 in SW 11 mph 11 mph 41 % 0 in
07:24 50.5 °F 27.7 °F 30.00 in WSW 8.1 mph 12 mph 41 % 0 in
07:29 50.7 °F 27.9 °F 30.00 in SW 8.1 mph 11 mph 41 % 0 in
07:34 50.9 °F 28 °F 30.00 in ESE 6.9 mph 10 mph 41 % 0 in
07:39 51.4 °F 28.6 °F 30.00 in SSE 4.9 mph 10 mph 41 % 0 in
07:44 51.6 °F 28.8 °F 30.00 in South 4.9 mph 8 mph 41 % 0 in
07:49 52.2 °F 28.6 °F 30.00 in SSW 4.9 mph 11 mph 40 % 0 in
07:54 52.2 °F 28.6 °F 30.00 in SSW 6 mph 10 mph 40 % 0 in
07:59 52.7 °F 29.1 °F 30.00 in SSE 8.1 mph 10 mph 40 % 0 in
08:04 53.4 °F 29.1 °F 30.00 in SSW 8.9 mph 10 mph 39 % 0 in
08:09 54.1 °F 29.7 °F 30.00 in SW 6 mph 10 mph 39 % 0 in
08:14 55 °F 29.3 °F 30.00 in South 6 mph 9 mph 37 % 0 in
08:19 56.3 °F 29.7 °F 30.00 in South 2.9 mph 6 mph 36 % 0 in
08:24 57.2 °F 30.6 °F 30.00 in WSW 6 mph 6 mph 36 % 0 in
08:29 58.3 °F 30.7 °F 30.00 in SW 4 mph 8 mph 35 % 0 in
08:34 59 °F 31.5 °F 30.00 in WSW 0.9 mph 5 mph 35 % 0 in
08:39 60.4 °F 32.7 °F 30.00 in South 2 mph 4 mph 35 % 0 in
08:44 61.3 °F 32.7 °F 30.00 in SSE 2 mph 4 mph 34 % 0 in
08:49 62.2 °F 32.7 °F 30.00 in SE 0.9 mph 3 mph 33 % 0 in
08:54 63.5 °F 33.8 °F 29.99 in Calm   1 mph 33 % 0 in
08:59 65.5 °F 34.9 °F 29.99 in Calm     32 % 0 in
09:04 67.1 °F 35.4 °F 29.99 in Calm     31 % 0 in
09:09 68.2 °F 34.7 °F 29.99 in Calm   1 mph 29 % 0 in
09:14 69.3 °F 35.6 °F 29.99 in Calm   1 mph 29 % 0 in
09:19 69.4 °F 35.8 °F 29.98 in Calm     29 % 0 in
09:24 70.5 °F 34.9 °F 29.98 in Calm     27 % 0 in
09:29 71.6 °F 34 °F 29.98 in Calm     25 % 0 in
09:34 72.3 °F 37.4 °F 29.98 in Calm   3 mph 28 % 0 in
09:39 72.9 °F 35.1 °F 29.98 in Calm     25 % 0 in
09:44 73.8 °F 37.8 °F 29.98 in NE 2 mph 3 mph 27 % 0 in
09:49 73.9 °F 38.8 °F 29.98 in NNE 0.9 mph 1 mph 28 % 0 in
09:54 74.7 °F 36.5 °F 29.98 in East 2.9 mph 3 mph 25 % 0 in
09:59 74.5 °F 35.2 °F 29.97 in ENE 0.9 mph 4 mph 24 % 0 in
10:04 75 °F 35.8 °F 29.98 in ENE 2 mph 3 mph 24 % 0 in
10:09 75.4 °F 35.1 °F 29.97 in East 0.9 mph 2 mph 23 % 0 in
10:14 75.7 °F 31.8 °F 29.97 in East 4 mph 6 mph 20 % 0 in
10:19 75.2 °F 31.5 °F 29.97 in ENE 4.9 mph 7 mph 20 % 0 in
10:24 76.1 °F 32.2 °F 29.97 in ENE 6 mph 8 mph 20 % 0 in
10:29 76.1 °F 30.9 °F 29.97 in NE 4.9 mph 6 mph 19 % 0 in
10:34 76.3 °F 32.2 °F 29.96 in ENE 4 mph 4 mph 20 % 0 in
10:39 76.6 °F 28.6 °F 29.96 in NE 0.9 mph 6 mph 17 % 0 in
10:44 76.6 °F 30 °F 29.96 in NE 6 mph 8 mph 18 % 0 in
10:49 76.6 °F 28.6 °F 29.96 in NE 2 mph 6 mph 17 % 0 in
10:54 77.7 °F 30.9 °F 29.96 in ENE 2 mph 8 mph 18 % 0 in
10:59 78.3 °F 28.4 °F 29.96 in NE 6 mph 10 mph 16 % 0 in
11:04 77.7 °F 27.9 °F 29.96 in ENE 8.9 mph 13 mph 16 % 0 in
11:09 77.4 °F 26.1 °F 29.96 in East 12.1 mph 14 mph 15 % 0 in
11:14 77 °F 27.3 °F 29.96 in ENE 4.9 mph 11 mph 16 % 0 in
11:19 77.5 °F 29.3 °F 29.95 in ENE 6 mph 9 mph 17 % 0 in
11:24 77.4 °F 29.1 °F 29.95 in NNE 2.9 mph 8 mph 17 % 0 in
11:29 77.4 °F 31.8 °F 29.95 in ENE 12.1 mph 16 mph 19 % 0 in
11:34 77.5 °F 29.3 °F 29.95 in ENE 13 mph 17 mph 17 % 0 in
11:39 77.4 °F 29.1 °F 29.94 in ENE 8.9 mph 13 mph 17 % 0 in
11:44 77.7 °F 32.2 °F 29.94 in NE 4.9 mph 8 mph 19 % 0 in
11:49 78.3 °F 29.8 °F 29.94 in NE 12.1 mph 16 mph 17 % 0 in
11:54 76.8 °F 31.5 °F 29.94 in NE 10.1 mph 15 mph 19 % 0 in
11:59 76.8 °F 28.8 °F 29.93 in ENE 12.1 mph 19 mph 17 % 0 in
12:04 76.3 °F 28.2 °F 29.93 in ENE 14.1 mph 19 mph 17 % 0 in
12:09 76.5 °F 31.1 °F 29.93 in NE 11 mph 17 mph 19 % 0 in
12:14 76.1 °F 30.9 °F 29.93 in ENE 17.9 mph 18 mph 19 % 0 in
12:19 76.3 °F 30.9 °F 29.93 in ENE 4 mph 13 mph 19 % 0 in
12:24 77 °F 30.2 °F 29.93 in ENE 10.1 mph 12 mph 18 % 0 in
12:29 76.6 °F 30 °F 29.92 in NE 15 mph 17 mph 18 % 0 in
12:34 76.5 °F 29.8 °F 29.92 in NE 11 mph 17 mph 18 % 0 in
12:39 76.3 °F 28.2 °F 29.92 in NE 8.9 mph 17 mph 17 % 0 in
12:44 76.5 °F 31.1 °F 29.92 in East 13 mph 17 mph 19 % 0 in
12:49 76.6 °F 31.3 °F 29.92 in ENE 14.1 mph 15 mph 19 % 0 in
12:54 77.5 °F 30.7 °F 29.92 in ENE 13 mph 21 mph 18 % 0 in
12:59 76.6 °F 30 °F 29.92 in NNE 8.9 mph 13 mph 18 % 0 in
13:04 77.5 °F 32 °F 29.91 in NE 12.1 mph 13 mph 19 % 0 in
13:09 76.8 °F 31.5 °F 29.91 in ENE 16.1 mph 18 mph 19 % 0 in
13:14 76.6 °F 31.3 °F 29.91 in East 16.1 mph 17 mph 19 % 0 in
13:19 76.8 °F 31.5 °F 29.91 in ENE 15 mph 21 mph 19 % 0 in
13:24 76.8 °F 32.7 °F 29.91 in ENE 11 mph 16 mph 20 % 0 in
13:29 77.5 °F 32 °F 29.90 in ENE 12.1 mph 17 mph 19 % 0 in
13:34 77.2 °F 31.8 °F 29.90 in NNE 10.1 mph 13 mph 19 % 0 in
13:39 77.2 °F 33.1 °F 29.90 in NE 13 mph 18 mph 20 % 0 in
13:44 77 °F 31.6 °F 29.89 in ENE 10.1 mph 21 mph 19 % 0 in
13:49 76.8 °F 31.5 °F 29.89 in NE 12.1 mph 20 mph 19 % 0 in
13:54 77.2 °F 33.1 °F 29.89 in NNE 16.1 mph 17 mph 20 % 0 in
13:59 77.5 °F 33.3 °F 29.89 in NE 12.1 mph 16 mph 20 % 0 in
14:04 78.1 °F 32.5 °F 29.88 in ENE 11 mph 14 mph 19 % 0 in
14:09 78.6 °F 31.6 °F 29.88 in ESE 13 mph 19 mph 18 % 0 in
14:14 78.3 °F 29.8 °F 29.88 in NE 10.1 mph 20 mph 17 % 0 in
14:19 78.3 °F 31.3 °F 29.88 in ENE 8.9 mph 21 mph 18 % 0 in
14:24 77.9 °F 32.4 °F 29.88 in ENE 12.1 mph 17 mph 19 % 0 in
14:29 78.4 °F 32.7 °F 29.88 in ENE 12.1 mph 15 mph 19 % 0 in
14:34 78.4 °F 31.5 °F 29.87 in ENE 16.1 mph 17 mph 18 % 0 in
14:39 78.6 °F 32.9 °F 29.87 in NNE 12.1 mph 17 mph 19 % 0 in
14:44 78.6 °F 30.2 °F 29.87 in NE 8.1 mph 13 mph 17 % 0 in
14:49 79.3 °F 33.4 °F 29.87 in ENE 8.9 mph 15 mph 19 % 0 in
14:54 79 °F 31.8 °F 29.87 in ENE 8.9 mph 17 mph 18 % 0 in
14:59 79.3 °F 32.2 °F 29.86 in NE 12.1 mph 14 mph 18 % 0 in
15:04 79.3 °F 32.2 °F 29.86 in ENE 12.1 mph 20 mph 18 % 0 in
15:09 79 °F 31.8 °F 29.86 in ENE 12.1 mph 22 mph 18 % 0 in
15:14 78.8 °F 33.1 °F 29.86 in ENE 14.1 mph 19 mph 19 % 0 in
15:19 79.2 °F 33.4 °F 29.85 in ENE 17.9 mph 22 mph 19 % 0 in
15:24 79.2 °F 33.4 °F 29.85 in East 17.9 mph 18 mph 19 % 0 in
15:29 79.3 °F 33.4 °F 29.85 in East 8.1 mph 14 mph 19 % 0 in
15:34 79.9 °F 34 °F 29.85 in ENE 10.1 mph 17 mph 19 % 0 in
15:39 80.1 °F 34.2 °F 29.85 in ENE 8.1 mph 13 mph 19 % 0 in
15:44 80.1 °F 32.7 °F 29.85 in NE 4.9 mph 13 mph 18 % 0 in
15:49 79.9 °F 34 °F 29.84 in ENE 6.9 mph 19 mph 19 % 0 in
15:54 79.9 °F 34 °F 29.84 in NE 17 mph 22 mph 19 % 0 in
15:59 79.7 °F 33.8 °F 29.84 in ENE 8.9 mph 18 mph 19 % 0 in
16:04 80.1 °F 34.2 °F 29.84 in ENE 10.1 mph 17 mph 19 % 0 in
16:09 80.4 °F 34.3 °F 29.84 in ENE 8.9 mph 14 mph 19 % 0 in
16:14 80.2 °F 32.9 °F 29.84 in ENE 8.9 mph 17 mph 18 % 0 in
16:19 79.9 °F 32.5 °F 29.83 in NE 12.1 mph 21 mph 18 % 0 in
16:24 79.9 °F 34 °F 29.83 in ENE 17 mph 21 mph 19 % 0 in
16:29 79.9 °F 32.5 °F 29.83 in ENE 15 mph 19 mph 18 % 0 in
16:34 80.1 °F 34.2 °F 29.83 in ENE 6 mph 11 mph 19 % 0 in
16:39 80.4 °F 34.3 °F 29.83 in NE 10.1 mph 13 mph 19 % 0 in
16:44 80.4 °F 34.3 °F 29.83 in ENE 13 mph 13 mph 19 % 0 in
16:49 80.4 °F 34.3 °F 29.83 in ENE 14.1 mph 16 mph 19 % 0 in
16:54 80.4 °F 33.1 °F 29.83 in NNE 10.1 mph 17 mph 18 % 0 in
16:59 80.2 °F 34.2 °F 29.83 in ENE 19.9 mph 20 mph 19 % 0 in
17:04 80.1 °F 34.2 °F 29.83 in ENE 13 mph 22 mph 19 % 0 in
17:09 80.2 °F 34.2 °F 29.83 in ENE 10.1 mph 11 mph 19 % 0 in
17:14 80.2 °F 34.2 °F 29.82 in ENE 14.1 mph 19 mph 19 % 0 in
17:19 80.4 °F 34.3 °F 29.82 in East 12.1 mph 13 mph 19 % 0 in
17:24 80.4 °F 34.3 °F 29.82 in ENE 10.1 mph 19 mph 19 % 0 in
17:29 80.4 °F 33.1 °F 29.82 in ENE 8.9 mph 11 mph 18 % 0 in
17:34 80.2 °F 32.9 °F 29.82 in ENE 23 mph 23 mph 18 % 0 in
17:39 80.2 °F 32.9 °F 29.82 in ENE 15 mph 15 mph 18 % 0 in
17:44 80.1 °F 32.7 °F 29.82 in NE 14.1 mph 15 mph 18 % 0 in
17:49 80.1 °F 34.2 °F 29.82 in NE 12.1 mph 20 mph 19 % 0 in
17:54 79.9 °F 35.2 °F 29.82 in NE 10.1 mph 12 mph 20 % 0 in
17:59 79.7 °F 36.3 °F 29.83 in SE 6.9 mph 13 mph 21 % 0 in
18:04 79.9 °F 36.5 °F 29.83 in ENE 4.9 mph 14 mph 21 % 0 in
18:09 79.3 °F 37.2 °F 29.82 in NE 6.9 mph 12 mph 22 % 0 in
18:14 79 °F 37.9 °F 29.82 in ENE 4 mph 14 mph 23 % 0 in
18:19 78.8 °F 37.9 °F 29.83 in East 13 mph 14 mph 23 % 0 in
18:24 78.4 °F 36.5 °F 29.82 in ENE 12.1 mph 14 mph 22 % 0 in
18:29 78.1 °F 36.1 °F 29.82 in ENE 8.9 mph 10 mph 22 % 0 in
18:34 78.1 °F 36.1 °F 29.82 in ENE 6.9 mph 11 mph 22 % 0 in
18:39 77.7 °F 35.8 °F 29.82 in East 13 mph 13 mph 22 % 0 in
18:44 77.2 °F 35.4 °F 29.82 in East 2.9 mph 7 mph 22 % 0 in
18:49 76.8 °F 36.1 °F 29.82 in ENE 2 mph 3 mph 23 % 0 in
18:54 76.5 °F 36 °F 29.82 in ENE 2 mph 4 mph 23 % 0 in
18:59 75.9 °F 35.4 °F 29.82 in ENE 0.9 mph 3 mph 23 % 0 in
19:04 75.6 °F 35.2 °F 29.82 in ENE 2 mph 2 mph 23 % 0 in
19:09 75 °F 34.7 °F 29.82 in ENE 2 mph 3 mph 23 % 0 in
19:14 74.7 °F 35.4 °F 29.82 in ENE 2 mph 3 mph 24 % 0 in
19:19 74.1 °F 35.1 °F 29.82 in ENE 0.9 mph 3 mph 24 % 0 in
19:24 73.6 °F 34.5 °F 29.82 in ENE 2 mph 4 mph 24 % 0 in
19:29 73 °F 35.1 °F 29.82 in Calm   5 mph 25 % 0 in
19:34 72.7 °F 34.9 °F 29.83 in Calm   1 mph 25 % 0 in
19:39 72 °F 35.2 °F 29.83 in ENE 2.9 mph 3 mph 26 % 0 in
19:44 71.8 °F 35.1 °F 29.83 in ENE 2.9 mph 4 mph 26 % 0 in
19:49 72.1 °F 35.4 °F 29.83 in ENE 4 mph 4 mph 26 % 0 in
19:54 72 °F 35.2 °F 29.83 in SSW 4 mph 4 mph 26 % 0 in
19:59 71.8 °F 35.1 °F 29.83 in SW 4 mph 4 mph 26 % 0 in
20:04 71.6 °F 34.9 °F 29.84 in WSW 2.9 mph 4 mph 26 % 0 in
20:09 71.2 °F 35.6 °F 29.84 in SW 2 mph 6 mph 27 % 0 in
20:14 70.5 °F 36.7 °F 29.84 in SE 4 mph 8 mph 29 % 0 in
20:19 70 °F 36.3 °F 29.84 in SSE 4 mph 6 mph 29 % 0 in
20:24 68.5 °F 36.7 °F 29.84 in SSE 8.9 mph 9 mph 31 % 0 in
20:29 66.9 °F 36.9 °F 29.84 in SSW 8.1 mph 11 mph 33 % 0 in
20:33 66 °F 36.9 °F 29.84 in SW 8.9 mph 12 mph 34 % 0 in
20:39 65.7 °F 37.2 °F 29.84 in SSE 13 mph 13 mph 35 % 0 in
20:44 65.5 °F 37 °F 29.84 in South 8.9 mph 11 mph 35 % 0 in
20:49 65.1 °F 36.9 °F 29.85 in WSW 6.9 mph 12 mph 35 % 0 in
20:54 65.3 °F 36.9 °F 29.85 in South 2.9 mph 8 mph 35 % 0 in
20:59 64.4 °F 36.9 °F 29.85 in SW 6.9 mph 10 mph 36 % 0 in
21:04 63.3 °F 36 °F 29.85 in SSW 8.9 mph 10 mph 36 % 0 in
21:09 63.3 °F 36.7 °F 29.85 in SW 8.1 mph 10 mph 37 % 0 in
21:14 63 °F 36.3 °F 29.85 in WSW 8.1 mph 10 mph 37 % 0 in
21:19 63.1 °F 35.8 °F 29.86 in SSW 6.9 mph 9 mph 36 % 0 in
21:24 62.6 °F 36 °F 29.85 in SSW 6 mph 8 mph 37 % 0 in
21:29 62.8 °F 36.1 °F 29.86 in SSW 10.1 mph 13 mph 37 % 0 in
21:34 62.2 °F 35.6 °F 29.85 in SSW 4.9 mph 10 mph 37 % 0 in
21:39 61.7 °F 35.8 °F 29.85 in SW 8.9 mph 12 mph 38 % 0 in
21:44 61.3 °F 35.6 °F 29.86 in SSW 4.9 mph 9 mph 38 % 0 in
21:49 60.6 °F 35.6 °F 29.86 in SSW 8.1 mph 12 mph 39 % 0 in
21:54 61.2 °F 35.4 °F 29.86 in NE 6 mph 9 mph 38 % 0 in
21:59 61.2 °F 35.4 °F 29.86 in SW 6.9 mph 8 mph 38 % 0 in
22:04 60.6 °F 35.6 °F 29.86 in SSW 6 mph 8 mph 39 % 0 in
22:09 60.3 °F 35.2 °F 29.85 in SSW 6.9 mph 10 mph 39 % 0 in
22:14 60.1 °F 35.6 °F 29.86 in SSW 4.9 mph 8 mph 40 % 0 in
22:19 59.4 °F 35.6 °F 29.86 in WSW 4.9 mph 10 mph 41 % 0 in
22:24 59.4 °F 35.6 °F 29.86 in South 2 mph 5 mph 41 % 0 in
22:29 59.5 °F 35.2 °F 29.86 in SSW 6 mph 6 mph 40 % 0 in
22:34 59.2 °F 35.4 °F 29.87 in SSE 2 mph 5 mph 41 % 0 in
22:39 59.2 °F 34.9 °F 29.87 in WSW 2 mph 3 mph 40 % 0 in
22:44 59.2 °F 34.9 °F 29.87 in SSE 2 mph 3 mph 40 % 0 in
22:49 59.2 °F 34.9 °F 29.87 in Calm   5 mph 40 % 0 in
22:54 59.5 °F 34.5 °F 29.87 in SE 4 mph 6 mph 39 % 0 in
22:59 59.4 °F 35.1 °F 29.87 in South 6.9 mph 8 mph 40 % 0 in
23:04 59 °F 34.7 °F 29.87 in SSW 6.9 mph 8 mph 40 % 0 in
23:09 58.8 °F 34.5 °F 29.86 in SW 4.9 mph 6 mph 40 % 0 in
23:14 58.6 °F 35.1 °F 29.87 in WSW 6.9 mph 7 mph 41 % 0 in
23:19 58.5 °F 34.9 °F 29.86 in SW 6.9 mph 8 mph 41 % 0 in
23:24 57.9 °F 34.3 °F 29.87 in SSW 8.1 mph 9 mph 41 % 0 in
23:29 57.6 °F 34.7 °F 29.86 in SW 6.9 mph 9 mph 42 % 0 in
23:34 57.4 °F 34.5 °F 29.87 in SW 8.1 mph 8 mph 42 % 0 in
23:39 56.8 °F 34.5 °F 29.87 in SW 8.9 mph 9 mph 43 % 0 in
23:44 57.2 °F 34.3 °F 29.86 in SW 6.9 mph 9 mph 42 % 0 in
23:49 57.7 °F 34.9 °F 29.86 in South 10.1 mph 11 mph 42 % 0 in
23:54 57.9 °F 34.3 °F 29.86 in SE 4.9 mph 10 mph 41 % 0 in
23:59 56.7 °F 34.3 °F 29.86 in SW 8.1 mph 11 mph 43 % 0 in
Evergreen Colorado, USA
Compliments of Weather Underground - 3.5 mb